Miscellaneous Local Product
Issued by NWS Hastings, NE

Home | Current Version | Previous Version | Text Only | Print | Product List | Glossary On
Versions: 1 2 3 4 5 6 7 8 9 10 11 12 13 14 15 16 17 18 19 20 21 22 23 24 25 26 27 28 29 30 31 32 33 34 35 36 37 38 39 40 41 42 43 44 45 46 47 48 49 50
000
AXUS43 KGID 290902
MISGRI

GID CWA HOURLY WEATHER ROUNDUP
NATIONAL WEATHER SERVICE HASTINGS NE
400 AM CDT TUE JUL 29 2014

NOTE: "FAIR" INDICATES FEW OR NO CLOUDS BELOW 12,000 FEET WITH NO
SIGNIFICANT WEATHER AND/OR OBSTRUCTIONS TO VISIBILITY.

...SOUTH CENTRAL NEBRASKA...

CITY           SKY/WX    TMP DP  RH WIND       PRES   REMARKS
GRAND ISLAND   LGT RAIN  63  59  87 SE5       30.23F
HASTINGS       CLOUDY    66  53  63 NE3       30.23S
KEARNEY        CLEAR     61  55  82 SE3       30.23S
ORD            LGT RAIN  60  58  92 CALM      30.23F
YORK           PTCLDY    57  57 100 NW3       30.22F
AURORA         LGT RAIN  62  61  97 CALM      30.22S
LEXINGTON      CLEAR     62  58  85 SE5       30.22F
HOLDREGE       CLEAR     60  56  85 E6        30.22F
HEBRON         CLOUDY    63  58  84 CALM      30.21S

...NEBRASKA PANHANDLE...

CITY           SKY/WX    TMP DP  RH WIND       PRES   REMARKS
CHADRON        CLEAR     60  52  74 NE7       30.22F
ALLIANCE       CLEAR     60  56  86 E9        30.23S
SCOTTSBLUFF    PTCLDY    62  58  86 E6        30.21S
SIDNEY         CLEAR     60  52  74 SE3       30.23F

...WESTERN AND NORTH CENTRAL NEBRASKA...

CITY           SKY/WX    TMP DP  RH WIND       PRES   REMARKS
VALENTINE      CLEAR     57  52  83 E5        30.25S
AINSWORTH      PTCLDY    55  54  94 SE5       30.25S
ONEILL         CLEAR     55  51  89 SW3       30.24S
BROKEN BOW     PTCLDY    60  56  86 SE5       30.24S
IMPERIAL       PTCLDY    60  57  89 SE7       30.20F
NORTH PLATTE   PTCLDY    58  56  93 E7        30.22F
MCCOOK         PTCLDY    63  56  78 E10       30.20F

...EASTERN NEBRASKA...

CITY           SKY/WX    TMP DP  RH WIND       PRES   REMARKS
NORFOLK        CLEAR     55  52  89 W3        30.20F
SO SIOUX CITY  CLEAR     54  53  97 CALM      30.20F
TEKAMAH        CLEAR     55  52  89 NW5       30.18F
ALBION         CLEAR     54  51  89 CALM      30.23S
OMAHA EPPLEY   CLEAR     58  55  90 NW5       30.18F
OFFUTT AFB     CLEAR     54  54 100 CALM      30.17S
MILLARD        CLEAR     60  57  88 CALM      30.18S
LINCOLN        CLEAR     58  52  80 CALM      30.20F
NEBRASKA CITY  CLEAR     58  55  91 CALM      30.17F
BEATRICE       PTCLDY    55  54  95 CALM      30.20S
FALLS CITY     CLEAR     58  54  86 CALM      30.16F

...NORTHERN KANSAS...

CITY           SKY/WX    TMP DP  RH WIND       PRES   REMARKS
GOODLAND       MOCLDY    63  59  87 S8        30.23F
HILL CITY      PTCLDY    63  56  78 E7        30.20F
NORTON         SUNNY     63  52  67 E9        30.20S
PHILLIPSBURG   CLEAR     63  55  77 E6        30.22S
SMITH CENTER   PTCLDY    61  55  82 E7        30.21F
HAYS           PTCLDY    64  54  68 E9        30.20F
RUSSELL        CLEAR     61  55  81 E8        30.19F
CONCORDIA      CLOUDY    64  58  80 CALM      30.20F
SALINA         MOCLDY    68  56  65 SE3       30.19F
TOPEKA         PTCLDY    60  57  89 SW3       30.18S



USA.gov is the U.S. government's official web portal to all federal, state and local government web resources and services.